,,PressureMeas_1m,,PRMeasQMR101_1,,RHStat155_1m_1,,SRMeasQMS101R_1m,,TAStat155_1m_1,,GenWind_1,,GenWind_1,
2017-08-13, 00:00:07,VALID,919.58,VALID,0.0,VALID,98.589,VALID,0.026,VALID,18.702,VALID,30.0,VALID,0.182,
2017-08-13, 00:01:07,VALID,919.589,VALID,0.0,VALID,98.63,VALID,0.019,VALID,18.735,VALID,9.0,VALID,0.013,
2017-08-13, 00:02:07,VALID,919.593,VALID,0.0,VALID,98.611,VALID,0.014,VALID,18.745,VALID,301.0,VALID,0.025,
2017-08-13, 00:03:07,VALID,919.571,VALID,0.0,VALID,98.615,VALID,0.001,VALID,18.739,VALID,275.0,VALID,0.0,
2017-08-13, 00:04:07,VALID,919.575,VALID,0.0,VALID,98.632,VALID,0.004,VALID,18.739,VALID,275.0,VALID,0.0,
2017-08-13, 00:05:07,VALID,919.567,VALID,0.0,VALID,98.609,VALID,0.017,VALID,18.723,VALID,275.0,VALID,0.0,
2017-08-13, 00:06:07,VALID,919.567,VALID,0.0,VALID,98.596,VALID,0.012,VALID,18.694,VALID,275.0,VALID,0.0,
2017-08-13, 00:07:07,VALID,919.567,VALID,0.0,VALID,98.601,VALID,0.024,VALID,18.687,VALID,275.0,VALID,0.0,
2017-08-13, 00:08:07,VALID,919.56,VALID,0.0,VALID,98.612,VALID,-0.01,VALID,18.696,VALID,275.0,VALID,0.0,
2017-08-13, 00:09:07,VALID,919.552,VALID,0.0,VALID,98.657,VALID,0.004,VALID,18.724,VALID,275.0,VALID,0.0,
2017-08-13, 00:10:07,VALID,919.549,VALID,0.0,VALID,98.66,VALID,-0.002,VALID,18.745,VALID,275.0,VALID,0.0,
2017-08-13, 00:11:07,VALID,919.533,VALID,0.0,VALID,98.649,VALID,0.004,VALID,18.751,VALID,275.0,VALID,0.0,
2017-08-13, 00:12:07,VALID,919.538,VALID,0.0,VALID,98.681,VALID,0.014,VALID,18.766,VALID,275.0,VALID,0.0,
2017-08-13, 00:13:07,VALID,919.53,VALID,0.0,VALID,98.672,VALID,-0.006,VALID,18.787,VALID,275.0,VALID,0.0,
2017-08-13, 00:14:07,VALID,919.52,VALID,0.0,VALID,98.66,VALID,0.001,VALID,18.785,VALID,275.0,VALID,0.0,
2017-08-13, 00:15:07,VALID,919.511,VALID,0.0,VALID,98.695,VALID,0.007,VALID,18.803,VALID,275.0,VALID,0.0,
2017-08-13, 00:16:07,VALID,919.514,VALID,0.0,VALID,98.681,VALID,0.007,VALID,18.821,VALID,275.0,VALID,0.0,
2017-08-13, 00:17:07,VALID,919.498,VALID,0.0,VALID,98.667,VALID,0.011,VALID,18.813,VALID,275.0,VALID,0.0,
2017-08-13, 00:18:07,VALID,919.503,VALID,0.0,VALID,98.662,VALID,0.012,VALID,18.806,VALID,275.0,VALID,0.0,
2017-08-13, 00:19:07,VALID,919.518,VALID,0.0,VALID,98.672,VALID,0.011,VALID,18.808,VALID,275.0,VALID,0.0,
2017-08-13, 00:20:07,VALID,919.514,VALID,0.0,VALID,98.673,VALID,0.014,VALID,18.796,VALID,275.0,VALID,0.0,
2017-08-13, 00:21:07,VALID,919.514,VALID,0.0,VALID,98.618,VALID,0.019,VALID,18.694,VALID,274.0,VALID,0.002,
2017-08-13, 00:22:07,VALID,919.511,VALID,0.0,VALID,98.596,VALID,0.024,VALID,18.633,VALID,257.0,VALID,0.061,
2017-08-13, 00:23:07,VALID,919.506,VALID,0.0,VALID,98.559,VALID,0.016,VALID,18.588,VALID,208.0,VALID,0.159,
2017-08-13, 00:24:07,VALID,919.512,VALID,0.0,VALID,98.576,VALID,0.006,VALID,18.562,VALID,139.0,VALID,0.09,
2017-08-13, 00:25:07,VALID,919.495,VALID,0.0,VALID,98.559,VALID,-0.001,VALID,18.532,VALID,132.0,VALID,0.041,
2017-08-13, 00:26:06,VALID,919.488,VALID,0.0,VALID,98.559,VALID,0.018,VALID,18.485,VALID,130.0,VALID,0.077,
2017-08-13, 00:27:06,VALID,919.468,VALID,0.0,VALID,98.536,VALID,0.003,VALID,18.454,VALID,119.0,VALID,0.198,
2017-08-13, 00:28:06,VALID,919.454,VALID,0.0,VALID,98.56,VALID,0.0,VALID,18.455,VALID,118.0,VALID,0.006,
2017-08-13, 00:29:06,VALID,919.436,VALID,0.0,VALID,98.585,VALID,-0.006,VALID,18.465,VALID,118.0,VALID,0.0,
2017-08-13, 00:30:06,VALID,919.412,VALID,0.0,VALID,98.597,VALID,-0.008,VALID,18.475,VALID,118.0,VALID,0.043,
2017-08-13, 00:31:06,VALID,919.399,VALID,0.0,VALID,98.591,VALID,-0.013,VALID,18.465,VALID,109.0,VALID,0.182,
2017-08-13, 00:32:06,VALID,919.385,VALID,0.0,VALID,98.604,VALID,-0.015,VALID,18.445,VALID,77.0,VALID,0.401,
2017-08-13, 00:33:06,VALID,919.37,VALID,0.0,VALID,98.622,VALID,-0.011,VALID,18.465,VALID,75.0,VALID,0.489,
2017-08-13, 00:34:06,VALID,919.348,VALID,0.0,VALID,98.646,VALID,-0.011,VALID,18.481,VALID,76.0,VALID,0.465,
2017-08-13, 00:35:06,VALID,919.344,VALID,0.0,VALID,98.637,VALID,-0.01,VALID,18.479,VALID,84.0,VALID,0.45,
2017-08-13, 00:36:06,VALID,919.329,VALID,0.0,VALID,98.682,VALID,-0.02,VALID,18.529,VALID,93.0,VALID,0.363,
2017-08-13, 00:37:06,VALID,919.337,VALID,0.0,VALID,98.675,VALID,-0.017,VALID,18.533,VALID,119.0,VALID,0.372,
2017-08-13, 00:38:06,VALID,919.329,VALID,0.0,VALID,98.69,VALID,-0.009,VALID,18.544,VALID,132.0,VALID,0.278,
2017-08-13, 00:39:06,VALID,919.326,VALID,0.0,VALID,98.693,VALID,-0.005,VALID,18.536,VALID,133.0,VALID,0.274,
2017-08-13, 00:40:06,VALID,919.329,VALID,0.0,VALID,98.665,VALID,-0.001,VALID,18.524,VALID,132.0,VALID,0.271,
2017-08-13, 00:41:06,VALID,919.327,VALID,0.0,VALID,98.695,VALID,-0.011,VALID,18.536,VALID,138.0,VALID,0.323,
2017-08-13, 00:42:06,VALID,919.305,VALID,0.0,VALID,98.724,VALID,-0.016,VALID,18.568,VALID,157.0,VALID,0.496,
2017-08-13, 00:43:06,VALID,919.294,VALID,0.0,VALID,98.721,VALID,-0.013,VALID,18.573,VALID,171.0,VALID,0.576,
2017-08-13, 00:44:06,VALID,919.279,VALID,0.0,VALID,98.744,VALID,-0.007,VALID,18.615,VALID,158.0,VALID,0.701,
2017-08-13, 00:45:06,VALID,919.269,VALID,0.0,VALID,98.747,VALID,-0.011,VALID,18.658,VALID,156.0,VALID,0.91,
2017-08-13, 00:46:06,VALID,919.255,VALID,0.0,VALID,98.756,VALID,-0.025,VALID,18.69,VALID,152.0,VALID,1.014,
2017-08-13, 00:47:06,VALID,919.234,VALID,0.0,VALID,98.772,VALID,-0.001,VALID,18.712,VALID,154.0,VALID,1.055,
2017-08-13, 00:48:06,VALID,919.223,VALID,0.0,VALID,98.769,VALID,-0.01,VALID,18.716,VALID,159.0,VALID,0.839,
2017-08-13, 00:49:06,VALID,919.205,VALID,0.0,VALID,98.766,VALID,0.002,VALID,18.729,VALID,160.0,VALID,0.695,
2017-08-13, 00:50:06,VALID,919.194,VALID,0.0,VALID,98.761,VALID,0.001,VALID,18.735,VALID,169.0,VALID,0.441,
2017-08-13, 00:51:06,VALID,919.196,VALID,0.0,VALID,98.772,VALID,-0.014,VALID,18.74,VALID,173.0,VALID,0.369,
2017-08-13, 00:52:06,VALID,919.193,VALID,0.0,VALID,98.769,VALID,-0.015,VALID,18.735,VALID,169.0,VALID,0.328,
2017-08-13, 00:53:06,VALID,919.195,VALID,0.0,VALID,98.783,VALID,-0.005,VALID,18.721,VALID,167.0,VALID,0.314,
2017-08-13, 00:54:06,VALID,919.186,VALID,0.0,VALID,98.749,VALID,-0.016,VALID,18.7,VALID,161.0,VALID,0.285,
2017-08-13, 00:55:06,VALID,919.188,VALID,0.0,VALID,98.79,VALID,-0.011,VALID,18.726,VALID,160.0,VALID,0.191,
2017-08-13, 00:56:06,VALID,919.185,VALID,0.0,VALID,98.777,VALID,0.017,VALID,18.726,VALID,159.0,VALID,0.195,
2017-08-13, 00:57:06,VALID,919.195,VALID,0.0,VALID,98.776,VALID,0.001,VALID,18.72,VALID,159.0,VALID,0.01,
2017-08-13, 00:58:06,VALID,919.204,VALID,0.0,VALID,98.774,VALID,0.002,VALID,18.713,VALID,159.0,VALID,0.066,
2017-08-13, 00:59:06,VALID,919.199,VALID,0.0,VALID,98.773,VALID,0.018,VALID,18.716,VALID,159.0,VALID,0.223,
2017-08-13, 01:00:06,VALID,919.192,VALID,0.0,VALID,98.777,VALID,0.006,VALID,18.706,VALID,155.0,VALID,0.404,
2017-08-13, 01:01:06,VALID,919.184,VALID,0.0,VALID,98.777,VALID,0.009,VALID,18.701,VALID,154.0,VALID,0.457,
2017-08-13, 01:02:06,VALID,919.169,VALID,0.0,VALID,98.767,VALID,0.007,VALID,18.708,VALID,144.0,VALID,0.314,
2017-08-13, 01:03:06,VALID,919.155,VALID,0.0,VALID,98.788,VALID,-0.004,VALID,18.715,VALID,141.0,VALID,0.173,
2017-08-13, 01:04:06,VALID,919.133,VALID,0.0,VALID,98.798,VALID,0.002,VALID,18.728,VALID,140.0,VALID,0.104,
2017-08-13, 01:05:06,VALID,919.108,VALID,0.0,VALID,98.788,VALID,0.0,VALID,18.734,VALID,140.0,VALID,0.248,
2017-08-13, 01:06:06,VALID,919.075,VALID,0.0,VALID,98.817,VALID,0.011,VALID,18.745,VALID,140.0,VALID,0.267,
2017-08-13, 01:07:06,VALID,919.046,VALID,0.0,VALID,98.79,VALID,0.009,VALID,18.747,VALID,140.0,VALID,0.379,
2017-08-13, 01:08:06,VALID,919.032,VALID,0.0,VALID,98.814,VALID,-0.009,VALID,18.762,VALID,143.0,VALID,0.377,
2017-08-13, 01:09:06,VALID,919.014,VALID,0.0,VALID,98.81,VALID,-0.005,VALID,18.777,VALID,150.0,VALID,0.084,
2017-08-13, 01:10:06,VALID,919.004,VALID,0.0,VALID,98.806,VALID,0.008,VALID,18.776,VALID,151.0,VALID,0.0,
2017-08-13, 01:11:06,VALID,918.975,VALID,0.0,VALID,98.811,VALID,-0.006,VALID,18.77,VALID,150.0,VALID,0.0,
2017-08-13, 01:12:06,VALID,918.981,VALID,0.0,VALID,98.813,VALID,-0.003,VALID,18.767,VALID,150.0,VALID,0.0,
2017-08-13, 01:13:06,VALID,918.971,VALID,0.0,VALID,98.79,VALID,0.004,VALID,18.727,VALID,149.0,VALID,0.021,
2017-08-13, 01:14:06,VALID,918.97,VALID,0.0,VALID,98.795,VALID,-0.002,VALID,18.697,VALID,120.0,VALID,0.12,
2017-08-13, 01:15:06,VALID,918.983,VALID,0.0,VALID,98.773,VALID,0.002,VALID,18.669,VALID,115.0,VALID,0.061,
2017-08-13, 01:16:06,VALID,918.982,VALID,0.0,VALID,98.778,VALID,-0.01,VALID,18.652,VALID,115.0,VALID,0.009,
2017-08-13, 01:17:06,VALID,918.985,VALID,0.0,VALID,98.772,VALID,0.002,VALID,18.65,VALID,115.0,VALID,0.0,
2017-08-13, 01:18:06,VALID,918.992,VALID,0.0,VALID,98.778,VALID,-0.009,VALID,18.652,VALID,115.0,VALID,0.0,
2017-08-13, 01:19:06,VALID,918.985,VALID,0.0,VALID,98.772,VALID,-0.014,VALID,18.64,VALID,115.0,VALID,0.0,
2017-08-13, 01:20:06,VALID,918.98,VALID,0.0,VALID,98.792,VALID,-0.004,VALID,18.647,VALID,116.0,VALID,0.0,
2017-08-13, 01:21:06,VALID,918.967,VALID,0.0,VALID,98.818,VALID,-0.005,VALID,18.668,VALID,117.0,VALID,0.077,
2017-08-13, 01:22:06,VALID,918.961,VALID,0.0,VALID,98.821,VALID,-0.008,VALID,18.674,VALID,128.0,VALID,0.184,
2017-08-13, 01:23:06,VALID,918.956,VALID,0.0,VALID,98.824,VALID,-0.002,VALID,18.652,VALID,124.0,VALID,0.351,
2017-08-13, 01:24:06,VALID,918.955,VALID,0.0,VALID,98.789,VALID,-0.013,VALID,18.631,VALID,104.0,VALID,0.608,
2017-08-13, 01:25:06,VALID,918.949,VALID,0.0,VALID,98.773,VALID,0.0,VALID,18.609,VALID,103.0,VALID,0.764,
2017-08-13, 01:26:06,VALID,918.948,VALID,0.0,VALID,98.776,VALID,0.011,VALID,18.595,VALID,114.0,VALID,0.812,
2017-08-13, 01:27:06,VALID,918.946,VALID,0.0,VALID,98.792,VALID,0.01,VALID,18.619,VALID,134.0,VALID,0.623,
2017-08-13, 01:28:06,VALID,918.94,VALID,0.0,VALID,98.816,VALID,0.004,VALID,18.645,VALID,133.0,VALID,0.702,
2017-08-13, 01:29:06,VALID,918.936,VALID,0.0,VALID,98.827,VALID,-0.01,VALID,18.661,VALID,133.0,VALID,0.596,
2017-08-13, 01:30:06,VALID,918.92,VALID,0.0,VALID,98.82,VALID,-0.006,VALID,18.678,VALID,127.0,VALID,0.698,
2017-08-13, 01:31:06,VALID,918.91,VALID,0.0,VALID,98.822,VALID,-0.003,VALID,18.69,VALID,132.0,VALID,0.563,
2017-08-13, 01:32:06,VALID,918.905,VALID,0.0,VALID,98.808,VALID,-0.0,VALID,18.683,VALID,126.0,VALID,0.829,
2017-08-13, 01:33:06,VALID,918.899,VALID,0.0,VALID,98.817,VALID,-0.007,VALID,18.695,VALID,124.0,VALID,0.694,
2017-08-13, 01:34:06,VALID,918.87,VALID,0.0,VALID,98.813,VALID,0.008,VALID,18.694,VALID,131.0,VALID,0.761,
2017-08-13, 01:35:06,VALID,918.866,VALID,0.0,VALID,98.821,VALID,-0.002,VALID,18.688,VALID,114.0,VALID,0.881,
2017-08-13, 01:36:06,VALID,918.845,VALID,0.0,VALID,98.831,VALID,0.008,VALID,18.69,VALID,127.0,VALID,1.038,
2017-08-13, 01:37:06,VALID,918.842,VALID,0.0,VALID,98.834,VALID,0.002,VALID,18.69,VALID,123.0,VALID,1.073,
2017-08-13, 01:38:06,VALID,918.833,VALID,0.0,VALID,98.828,VALID,-0.013,VALID,18.671,VALID,123.0,VALID,1.24,
2017-08-13, 01:39:06,VALID,918.816,VALID,0.0,VALID,98.812,VALID,-0.003,VALID,18.658,VALID,125.0,VALID,1.065,
2017-08-13, 01:40:06,VALID,918.813,VALID,0.0,VALID,98.815,VALID,0.001,VALID,18.649,VALID,123.0,VALID,1.226,
2017-08-13, 01:41:06,VALID,918.793,VALID,0.0,VALID,98.833,VALID,0.024,VALID,18.644,VALID,125.0,VALID,1.241,
2017-08-13, 01:42:06,VALID,918.78,VALID,0.0,VALID,98.831,VALID,0.046,VALID,18.637,VALID,125.0,VALID,1.368,
2017-08-13, 01:43:06,VALID,918.767,VALID,0.0,VALID,98.818,VALID,0.017,VALID,18.625,VALID,124.0,VALID,1.386,
2017-08-13, 01:44:06,VALID,918.742,VALID,0.0,VALID,98.828,VALID,0.015,VALID,18.62,VALID,127.0,VALID,1.469,
2017-08-13, 01:45:06,VALID,918.716,VALID,0.0,VALID,98.817,VALID,0.009,VALID,18.622,VALID,131.0,VALID,1.038,
2017-08-13, 01:46:06,VALID,918.708,VALID,0.0,VALID,98.823,VALID,0.016,VALID,18.611,VALID,132.0,VALID,1.226,
2017-08-13, 01:47:06,VALID,918.683,VALID,0.0,VALID,98.799,VALID,0.013,VALID,18.596,VALID,131.0,VALID,1.183,
2017-08-13, 01:48:06,VALID,918.674,VALID,0.0,VALID,98.831,VALID,0.017,VALID,18.591,VALID,133.0,VALID,1.163,
2017-08-13, 01:49:06,VALID,918.65,VALID,0.0,VALID,98.821,VALID,0.019,VALID,18.586,VALID,130.0,VALID,1.379,
2017-08-13, 01:50:06,VALID,918.63,VALID,0.0,VALID,98.815,VALID,0.023,VALID,18.584,VALID,133.0,VALID,1.241,
2017-08-13, 01:51:06,VALID,918.618,VALID,0.0,VALID,98.816,VALID,0.031,VALID,18.566,VALID,129.0,VALID,1.037,
2017-08-13, 01:52:06,VALID,918.599,VALID,0.0,VALID,98.794,VALID,0.017,VALID,18.558,VALID,139.0,VALID,1.284,
2017-08-13, 01:53:06,VALID,918.588,VALID,0.0,VALID,98.826,VALID,0.027,VALID,18.555,VALID,136.0,VALID,1.154,
2017-08-13, 01:54:06,VALID,918.565,VALID,0.0,VALID,98.808,VALID,0.029,VALID,18.547,VALID,142.0,VALID,1.466,
2017-08-13, 01:55:06,VALID,918.537,VALID,0.0,VALID,98.819,VALID,0.004,VALID,18.547,VALID,137.0,VALID,1.22,
2017-08-13, 01:56:06,VALID,918.524,VALID,0.0,VALID,98.814,VALID,0.002,VALID,18.539,VALID,145.0,VALID,1.438,
2017-08-13, 01:57:06,VALID,918.5,VALID,0.0,VALID,98.835,VALID,0.029,VALID,18.553,VALID,152.0,VALID,1.83,
2017-08-13, 01:58:06,VALID,918.482,VALID,0.0,VALID,98.843,VALID,0.032,VALID,18.574,VALID,146.0,VALID,1.686,
2017-08-13, 01:59:06,VALID,918.453,VALID,0.0,VALID,98.852,VALID,0.028,VALID,18.57,VALID,147.0,VALID,1.665,
2017-08-13, 02:00:06,VALID,918.451,VALID,0.0,VALID,98.825,VALID,0.007,VALID,18.576,VALID,149.0,VALID,1.788,
2017-08-13, 02:01:06,VALID,918.422,VALID,0.0,VALID,98.848,VALID,0.015,VALID,18.59,VALID,154.0,VALID,1.577,
2017-08-13, 02:02:06,VALID,918.413,VALID,0.0,VALID,98.822,VALID,0.008,VALID,18.594,VALID,152.0,VALID,1.339,
2017-08-13, 02:03:06,VALID,918.389,VALID,0.0,VALID,98.814,VALID,0.005,VALID,18.562,VALID,129.0,VALID,0.825,
2017-08-13, 02:04:06,VALID,918.376,VALID,0.0,VALID,98.808,VALID,0.018,VALID,18.532,VALID,134.0,VALID,0.74,
2017-08-13, 02:05:06,VALID,918.356,VALID,0.0,VALID,98.809,VALID,0.007,VALID,18.523,VALID,126.0,VALID,0.637,
2017-08-13, 02:06:06,VALID,918.342,VALID,0.0,VALID,98.803,VALID,0.012,VALID,18.513,VALID,122.0,VALID,0.951,
2017-08-13, 02:07:06,VALID,918.332,VALID,0.0,VALID,98.809,VALID,0.004,VALID,18.518,VALID,126.0,VALID,0.624,
2017-08-13, 02:08:06,VALID,918.325,VALID,0.0,VALID,98.809,VALID,0.012,VALID,18.501,VALID,125.0,VALID,0.978,
2017-08-13, 02:09:06,VALID,918.329,VALID,0.0,VALID,98.799,VALID,-0.003,VALID,18.483,VALID,130.0,VALID,0.859,
2017-08-13, 02:10:06,VALID,918.316,VALID,0.0,VALID,98.799,VALID,0.004,VALID,18.474,VALID,138.0,VALID,0.969,
2017-08-13, 02:11:06,VALID,918.308,VALID,0.0,VALID,98.798,VALID,0.011,VALID,18.486,VALID,137.0,VALID,0.888,
2017-08-13, 02:12:06,VALID,918.303,VALID,0.0,VALID,98.802,VALID,-0.002,VALID,18.474,VALID,137.0,VALID,1.005,
2017-08-13, 02:13:06,VALID,918.296,VALID,0.0,VALID,98.793,VALID,0.0,VALID,18.472,VALID,139.0,VALID,1.346,
2017-08-13, 02:14:06,VALID,918.285,VALID,0.0,VALID,98.782,VALID,0.009,VALID,18.48,VALID,148.0,VALID,1.45,
2017-08-13, 02:15:06,VALID,918.29,VALID,0.0,VALID,98.772,VALID,0.012,VALID,18.522,VALID,145.0,VALID,1.487,
2017-08-13, 02:16:06,VALID,918.282,VALID,0.0,VALID,98.76,VALID,-0.007,VALID,18.541,VALID,148.0,VALID,1.645,
2017-08-13, 02:17:06,VALID,918.268,VALID,0.0,VALID,98.726,VALID,-0.001,VALID,18.555,VALID,137.0,VALID,1.352,
2017-08-13, 02:18:06,VALID,918.265,VALID,0.0,VALID,98.717,VALID,0.01,VALID,18.541,VALID,137.0,VALID,0.996,
2017-08-13, 02:19:06,VALID,918.266,VALID,0.0,VALID,98.668,VALID,0.008,VALID,18.529,VALID,137.0,VALID,1.209,
2017-08-13, 02:20:06,VALID,918.267,VALID,0.0,VALID,98.671,VALID,0.016,VALID,18.538,VALID,134.0,VALID,1.191,
2017-08-13, 02:21:06,VALID,918.275,VALID,0.0,VALID,98.678,VALID,0.019,VALID,18.55,VALID,140.0,VALID,1.163,
2017-08-13, 02:22:06,VALID,918.268,VALID,0.0,VALID,98.643,VALID,0.019,VALID,18.547,VALID,138.0,VALID,1.301,
2017-08-13, 02:23:06,VALID,918.255,VALID,0.0,VALID,98.62,VALID,0.011,VALID,18.537,VALID,127.0,VALID,1.3,
2017-08-13, 02:24:06,VALID,918.235,VALID,0.0,VALID,98.619,VALID,0.009,VALID,18.527,VALID,126.0,VALID,0.921,
2017-08-13, 02:25:06,VALID,918.208,VALID,0.0,VALID,98.598,VALID,-0.002,VALID,18.516,VALID,127.0,VALID,0.688,
2017-08-13, 02:26:06,VALID,918.172,VALID,0.0,VALID,98.588,VALID,-0.013,VALID,18.502,VALID,137.0,VALID,0.873,
2017-08-13, 02:27:06,VALID,918.145,VALID,0.0,VALID,98.597,VALID,-0.022,VALID,18.506,VALID,138.0,VALID,1.163,
2017-08-13, 02:28:06,VALID,918.103,VALID,0.0,VALID,98.6,VALID,-0.021,VALID,18.517,VALID,151.0,VALID,1.371,
2017-08-13, 02:29:06,VALID,918.078,VALID,0.0,VALID,98.608,VALID,-0.028,VALID,18.533,VALID,153.0,VALID,1.433,
2017-08-13, 02:30:06,VALID,918.065,VALID,0.0,VALID,98.622,VALID,-0.034,VALID,18.541,VALID,156.0,VALID,1.281,
2017-08-13, 02:31:06,VALID,918.034,VALID,0.0,VALID,98.587,VALID,-0.02,VALID,18.546,VALID,157.0,VALID,1.347,
2017-08-13, 02:32:06,VALID,918.02,VALID,0.0,VALID,98.598,VALID,-0.026,VALID,18.547,VALID,156.0,VALID,1.28,
2017-08-13, 02:33:06,VALID,918.001,VALID,0.0,VALID,98.573,VALID,-0.012,VALID,18.554,VALID,151.0,VALID,1.762,
2017-08-13, 02:34:06,VALID,917.984,VALID,0.0,VALID,98.575,VALID,-0.021,VALID,18.562,VALID,146.0,VALID,1.678,
2017-08-13, 02:35:06,VALID,917.98,VALID,0.0,VALID,98.541,VALID,-0.02,VALID,18.55,VALID,140.0,VALID,1.443,
2017-08-13, 02:36:06,VALID,917.956,VALID,0.0,VALID,98.521,VALID,-0.009,VALID,18.539,VALID,139.0,VALID,1.3,
2017-08-13, 02:37:06,VALID,917.947,VALID,0.0,VALID,98.502,VALID,-0.013,VALID,18.529,VALID,136.0,VALID,1.081,
2017-08-13, 02:38:06,VALID,917.939,VALID,0.0,VALID,98.463,VALID,-0.003,VALID,18.502,VALID,146.0,VALID,1.446,
2017-08-13, 02:39:06,VALID,917.92,VALID,0.0,VALID,98.469,VALID,-0.014,VALID,18.483,VALID,141.0,VALID,1.252,
2017-08-13, 02:40:06,VALID,917.902,VALID,0.0,VALID,98.467,VALID,-0.006,VALID,18.47,VALID,143.0,VALID,1.396,
2017-08-13, 02:41:06,VALID,917.906,VALID,0.0,VALID,98.501,VALID,-0.012,VALID,18.493,VALID,143.0,VALID,1.43,
2017-08-13, 02:42:06,VALID,917.898,VALID,0.0,VALID,98.477,VALID,0.001,VALID,18.497,VALID,142.0,VALID,1.314,
2017-08-13, 02:43:06,VALID,917.902,VALID,0.0,VALID,98.441,VALID,-0.004,VALID,18.501,VALID,143.0,VALID,1.379,
2017-08-13, 02:44:06,VALID,917.892,VALID,0.0,VALID,98.417,VALID,-0.005,VALID,18.509,VALID,139.0,VALID,1.157,
2017-08-13, 02:45:06,VALID,917.894,VALID,0.0,VALID,98.39,VALID,-0.002,VALID,18.512,VALID,143.0,VALID,1.359,
2017-08-13, 02:46:06,VALID,917.889,VALID,0.0,VALID,98.368,VALID,0.006,VALID,18.534,VALID,143.0,VALID,1.236,
2017-08-13, 02:47:06,VALID,917.892,VALID,0.0,VALID,98.346,VALID,0.008,VALID,18.543,VALID,140.0,VALID,0.988,
2017-08-13, 02:48:06,VALID,917.897,VALID,0.0,VALID,98.301,VALID,0.015,VALID,18.53,VALID,135.0,VALID,1.168,
2017-08-13, 02:49:06,VALID,917.901,VALID,0.0,VALID,98.285,VALID,0.018,VALID,18.517,VALID,139.0,VALID,0.895,
2017-08-13, 02:50:06,VALID,917.901,VALID,0.0,VALID,98.263,VALID,0.013,VALID,18.5,VALID,135.0,VALID,0.913,
2017-08-13, 02:51:06,VALID,917.906,VALID,0.0,VALID,98.254,VALID,0.003,VALID,18.488,VALID,127.0,VALID,0.727,
2017-08-13, 02:52:06,VALID,917.9,VALID,0.0,VALID,98.245,VALID,-0.003,VALID,18.474,VALID,125.0,VALID,0.669,
2017-08-13, 02:53:06,VALID,917.913,VALID,0.0,VALID,98.253,VALID,-0.006,VALID,18.451,VALID,112.0,VALID,0.805,
2017-08-13, 02:54:06,VALID,917.915,VALID,0.0,VALID,98.18,VALID,0.005,VALID,18.404,VALID,100.0,VALID,0.581,
2017-08-13, 02:55:06,VALID,917.903,VALID,0.0,VALID,98.175,VALID,-0.006,VALID,18.386,VALID,109.0,VALID,0.723,
2017-08-13, 02:56:06,VALID,917.884,VALID,0.0,VALID,98.194,VALID,-0.018,VALID,18.395,VALID,108.0,VALID,0.825,
2017-08-13, 02:57:06,VALID,917.881,VALID,0.0,VALID,98.229,VALID,-0.016,VALID,18.402,VALID,106.0,VALID,0.65,
2017-08-13, 02:58:06,VALID,917.871,VALID,0.0,VALID,98.228,VALID,-0.009,VALID,18.403,VALID,106.0,VALID,0.821,
2017-08-13, 02:59:06,VALID,917.867,VALID,0.0,VALID,98.245,VALID,-0.008,VALID,18.406,VALID,105.0,VALID,0.591,
2017-08-13, 03:00:06,VALID,917.858,VALID,0.0,VALID,98.23,VALID,-0.001,VALID,18.383,VALID,107.0,VALID,0.655,
2017-08-13, 03:01:06,VALID,917.858,VALID,0.0,VALID,98.222,VALID,-0.005,VALID,18.37,VALID,110.0,VALID,0.636,
2017-08-13, 03:02:06,VALID,917.856,VALID,0.0,VALID,98.25,VALID,-0.006,VALID,18.383,VALID,115.0,VALID,0.776,
2017-08-13, 03:03:06,VALID,917.866,VALID,0.0,VALID,98.29,VALID,-0.017,VALID,18.401,VALID,120.0,VALID,0.749,
2017-08-13, 03:04:06,VALID,917.859,VALID,0.0,VALID,98.271,VALID,-0.007,VALID,18.386,VALID,127.0,VALID,0.464,
2017-08-13, 03:05:06,VALID,917.851,VALID,0.0,VALID,98.266,VALID,-0.013,VALID,18.382,VALID,134.0,VALID,0.561,
2017-08-13, 03:06:06,VALID,917.847,VALID,0.0,VALID,98.282,VALID,-0.002,VALID,18.379,VALID,133.0,VALID,0.507,
2017-08-13, 03:07:06,VALID,917.856,VALID,0.0,VALID,98.284,VALID,-0.001,VALID,18.376,VALID,132.0,VALID,0.521,
2017-08-13, 03:08:06,VALID,917.856,VALID,0.0,VALID,98.299,VALID,-0.019,VALID,18.381,VALID,129.0,VALID,0.548,
2017-08-13, 03:09:06,VALID,917.855,VALID,0.0,VALID,98.33,VALID,-0.012,VALID,18.397,VALID,137.0,VALID,0.459,
2017-08-13, 03:10:06,VALID,917.861,VALID,0.0,VALID,98.333,VALID,-0.009,VALID,18.412,VALID,133.0,VALID,0.338,
2017-08-13, 03:11:06,VALID,917.863,VALID,0.0,VALID,98.345,VALID,-0.002,VALID,18.438,VALID,120.0,VALID,0.323,
2017-08-13, 03:12:06,VALID,917.846,VALID,0.0,VALID,98.33,VALID,-0.023,VALID,18.439,VALID,116.0,VALID,0.289,
2017-08-13, 03:13:06,VALID,917.83,VALID,0.0,VALID,98.305,VALID,-0.026,VALID,18.431,VALID,116.0,VALID,0.326,
2017-08-13, 03:14:06,VALID,917.818,VALID,0.0,VALID,98.289,VALID,-0.038,VALID,18.419,VALID,116.0,VALID,0.327,
2017-08-13, 03:15:06,VALID,917.794,VALID,0.0,VALID,98.25,VALID,-0.015,VALID,18.41,VALID,121.0,VALID,0.187,
2017-08-13, 03:16:06,VALID,917.768,VALID,0.0,VALID,98.287,VALID,-0.028,VALID,18.423,VALID,128.0,VALID,0.349,
2017-08-13, 03:17:06,VALID,917.756,VALID,0.0,VALID,98.284,VALID,-0.01,VALID,18.416,VALID,134.0,VALID,0.483,
2017-08-13, 03:18:06,VALID,917.745,VALID,0.0,VALID,98.26,VALID,-0.009,VALID,18.405,VALID,139.0,VALID,0.458,
2017-08-13, 03:19:06,VALID,917.744,VALID,0.0,VALID,98.276,VALID,0.001,VALID,18.405,VALID,133.0,VALID,0.637,
2017-08-13, 03:20:06,VALID,917.742,VALID,0.0,VALID,98.292,VALID,-0.008,VALID,18.424,VALID,113.0,VALID,1.04,
2017-08-13, 03:21:06,VALID,917.746,VALID,0.0,VALID,98.273,VALID,-0.007,VALID,18.422,VALID,107.0,VALID,1.017,
2017-08-13, 03:22:06,VALID,917.746,VALID,0.0,VALID,98.229,VALID,-0.011,VALID,18.392,VALID,98.0,VALID,0.82,
2017-08-13, 03:23:06,VALID,917.756,VALID,0.0,VALID,98.251,VALID,-0.022,VALID,18.407,VALID,96.0,VALID,0.899,
2017-08-13, 03:24:06,VALID,917.75,VALID,0.0,VALID,98.241,VALID,-0.006,VALID,18.399,VALID,100.0,VALID,0.837,
2017-08-13, 03:25:06,VALID,917.747,VALID,0.0,VALID,98.221,VALID,-0.01,VALID,18.372,VALID,115.0,VALID,0.984,
2017-08-13, 03:26:06,VALID,917.74,VALID,0.0,VALID,98.238,VALID,-0.02,VALID,18.38,VALID,133.0,VALID,0.851,
2017-08-13, 03:27:06,VALID,917.726,VALID,0.0,VALID,98.25,VALID,-0.051,VALID,18.38,VALID,132.0,VALID,0.942,
2017-08-13, 03:28:06,VALID,917.721,VALID,0.0,VALID,98.266,VALID,-0.016,VALID,18.392,VALID,127.0,VALID,0.995,
2017-08-13, 03:29:06,VALID,917.717,VALID,0.0,VALID,98.249,VALID,-0.036,VALID,18.386,VALID,126.0,VALID,0.995,
2017-08-13, 03:30:06,VALID,917.709,VALID,0.0,VALID,98.252,VALID,-0.024,VALID,18.383,VALID,127.0,VALID,1.109,
2017-08-13, 03:31:06,VALID,917.709,VALID,0.0,VALID,98.257,VALID,-0.017,VALID,18.389,VALID,129.0,VALID,0.934,
2017-08-13, 03:32:06,VALID,917.71,VALID,0.0,VALID,98.274,VALID,-0.023,VALID,18.387,VALID,127.0,VALID,0.963,
2017-08-13, 03:33:06,VALID,917.726,VALID,0.0,VALID,98.284,VALID,-0.028,VALID,18.394,VALID,130.0,VALID,0.912,
2017-08-13, 03:34:06,VALID,917.724,VALID,0.0,VALID,98.305,VALID,-0.023,VALID,18.408,VALID,135.0,VALID,1.2,
2017-08-13, 03:35:06,VALID,917.734,VALID,0.0,VALID,98.338,VALID,-0.018,VALID,18.426,VALID,138.0,VALID,1.256,
2017-08-13, 03:36:06,VALID,917.734,VALID,0.0,VALID,98.361,VALID,-0.02,VALID,18.436,VALID,144.0,VALID,1.641,
2017-08-13, 03:37:06,VALID,917.734,VALID,0.0,VALID,98.375,VALID,-0.029,VALID,18.442,VALID,140.0,VALID,1.614,
2017-08-13, 03:38:06,VALID,917.737,VALID,0.0,VALID,98.376,VALID,-0.02,VALID,18.444,VALID,138.0,VALID,1.311,